ZHONGXING-20A

Last updated on Tue Jun 13 2023 00:02:45 GMT+0000 (Coordinated Universal Time)

1 37234U 10064A 23163.49781913 .00000011 00000+0 00000+0 0 9997 2 37234 4.3960 102.1047 0019730 238.6815 151.3004 0.98415316 45933
UTC large
Height (km)
Speed (km/s)
/
Latitude / Longitude
Inclination (degrees)
Orbital Period (minutes)
Azimuth
Elevation
Range (km)
Doppler Factor

Next 0 passes for location: London (51.5072 / 0.1276)

Sorry there are no passes over London.